Indianapolis, IN

10:59 PM EDT on October 20, 2019 (GMT -0400)
Indianapolis International

Weather History for KIND - June, 2019

Change the Weather History Date:

Wednesday, June 5, 2019

  Actual Average Record
Temperature  
Mean Temperature 77 °F 69 °F  
Max Temperature 87 °F 79 °F 98 °F (1925)
Min Temperature 67 °F 59 °F 40 °F (1945)
Degree Days  
Heating Degree Days 0 1  
Month to date heating degree days 0 7  
Since 1 June heating degree days 0 7  
Since 1 July heating degree days 5376 5369  
Cooling Degree Days 12 5  
Month to date cooling degree days 24 25  
Year to date cooling degree days 135 109  
Since 1 June cooling degree days 24 25  
Growing Degree Days 26 (Base 50)    
Moisture  
Dew Point 66 °F    
Average Humidity 75    
Maximum Humidity 93    
Minimum Humidity 57    
Precipitation  
Precipitation 0.57 in 0.15 in 1.51 in (1928)
Month to date precipitation 0.57 0.72  
Year to date precipitation 22.21 18.12  
Snow  
Snow 0.00 in 0.00 in 0.00 in ()
Month to date snowfall 0.0 0.0  
Since 1 June snowfall 0.0 0.0  
Since 1 July snowfall 19.4 25.9  
Snow Depth 0.00 in    
Sea Level Pressure  
Sea Level Pressure 29.78 in    
Wind  
Wind Speed 10 mph (SW)    
Max Wind Speed 31 mph    
Max Gust Speed 41 mph    
Visibility 9 miles    
Events Rain , Thunderstorm    
T = Trace of Precipitation, MM = Missing Value Source: NWS Daily Summary

Daily Weather History Graph

Daily Weather History Graph

Search for Another Location

Airport or City:

Astronomy

Jun. 05, 2019 Rise Set
Actual Time 6:17 AM EDT 9:09 PM EDT
Civil Twilight 5:45 AM EDT 9:41 PM EDT
Nautical Twilight 5:05 AM EDT 10:22 PM EDT
Astronomical Twilight 4:18 AM EDT 11:09 PM EDT
Moon 8:22 AM EDT (6/5) 11:35 PM EDT (6/5)
Length of Visible Light 15h 56m
Length of Day
14h 51m
Waxing Crescent, 6% of the Moon is Illuminated
Jun 5
Waxing Crescent
Jun 10
First Quarter
Jun 17
Full
Jun 25
Last Quarter
Jul 2
New

Hourly Weather History & Observations

Time (EDT) Temp. Heat Index Dew Point Humidity Pressure Visibility Wind Dir Wind Speed Gust Speed Precip Events Conditions
12:54 AM 71.1 °F - 57.9 °F 63% 29.84 in 10.0 mi South 9.2 mph - N/A   Mostly Cloudy
1:54 AM 72.0 °F - 62.1 °F 71% 29.85 in 10.0 mi SSW 11.5 mph - N/A   Overcast
2:54 AM 71.1 °F - 63.0 °F 75% 29.83 in 10.0 mi SW 11.5 mph - N/A   Mostly Cloudy
3:54 AM 70.0 °F - 64.0 °F 81% 29.80 in 10.0 mi SSW 10.4 mph - N/A   Mostly Cloudy
4:54 AM 70.0 °F - 64.9 °F 84% 29.80 in 10.0 mi SSW 10.4 mph - N/A   Overcast
5:54 AM 70.0 °F - 66.0 °F 87% 29.80 in 10.0 mi SSW 10.4 mph - N/A   Mostly Cloudy
6:54 AM 70.0 °F - 64.9 °F 84% 29.81 in 10.0 mi SW 6.9 mph - N/A   Mostly Cloudy
7:54 AM 72.0 °F - 64.9 °F 78% 29.81 in 10.0 mi SW 12.7 mph - N/A   Mostly Cloudy
8:54 AM 73.0 °F - 64.9 °F 76% 29.80 in 10.0 mi SW 15.0 mph - N/A   Mostly Cloudy
9:35 AM 72.0 °F - 64.9 °F 78% 29.81 in 10.0 mi SW 13.8 mph - N/A   Mostly Cloudy
9:54 AM 72.0 °F - 64.9 °F 78% 29.80 in 10.0 mi SW 15.0 mph - N/A   Overcast
10:54 AM 71.1 °F - 66.0 °F 84% 29.78 in 10.0 mi SW 12.7 mph - N/A   Overcast
11:08 AM 71.1 °F - 66.0 °F 84% 29.79 in 10.0 mi SW 12.7 mph - N/A   Overcast
11:54 AM 73.9 °F - 66.9 °F 79% 29.78 in 10.0 mi SW 10.4 mph - N/A   Overcast
12:54 PM 75.9 °F - 69.1 °F 79% 29.78 in 10.0 mi SW 12.7 mph - N/A   Overcast
1:54 PM 80.1 °F 83.6 °F 71.1 °F 74% 29.76 in 10.0 mi SSW 10.4 mph - N/A   Mostly Cloudy
2:54 PM 84.9 °F 90.1 °F 71.1 °F 63% 29.74 in 10.0 mi WSW 15.0 mph - N/A   Mostly Cloudy
3:54 PM 86.0 °F 90.1 °F 69.1 °F 57% 29.72 in 10.0 mi WSW 17.3 mph - N/A   Mostly Cloudy
4:13 PM 84.9 °F 88.8 °F 69.1 °F 59% 29.75 in 10.0 mi WSW 16.1 mph - N/A Thunderstorm Scattered Clouds
4:18 PM 81.0 °F 83.8 °F 68.0 °F 65% 29.79 in 8.0 mi NNW 31.1 mph 41.4 mph 0.00 in Rain , Thunderstorm Light Thunderstorms and Rain
4:29 PM 69.1 °F - 64.0 °F 84% 29.80 in 9.0 mi North 18.4 mph 39.1 mph 0.02 in Rain , Thunderstorm Light Thunderstorms and Rain
4:54 PM 70.0 °F - 64.9 °F 84% 29.76 in 10.0 mi North 15.0 mph 25.3 mph 0.02 in Rain , Thunderstorm Light Thunderstorms and Rain
5:22 PM 69.1 °F - 64.9 °F 87% 29.80 in 1.5 mi NNW 24.2 mph 33.4 mph 0.00 in Rain , Thunderstorm Heavy Thunderstorms and Rain
5:41 PM 66.9 °F - 66.0 °F 97% 29.77 in 3.0 mi NNW 10.4 mph 33.4 mph 0.40 in Rain , Thunderstorm Thunderstorms and Rain
5:54 PM 69.1 °F - 66.0 °F 90% 29.75 in 4.0 mi ENE 4.6 mph - 0.49 in Rain , Thunderstorm Thunderstorms and Rain
6:31 PM 71.1 °F - 66.9 °F 87% 29.75 in 10.0 mi ENE 4.6 mph - 0.06 in   Overcast
6:40 PM 71.1 °F - 66.0 °F 84% 29.76 in 10.0 mi Calm Calm - 0.06 in Thunderstorm Overcast
6:54 PM 72.0 °F - 66.9 °F 84% 29.74 in 10.0 mi Calm Calm - 0.06 in   Overcast
7:54 PM 71.1 °F - 66.9 °F 87% 29.71 in 10.0 mi Calm Calm - N/A   Overcast
8:54 PM 69.1 °F - 66.9 °F 93% 29.75 in 10.0 mi SSW 9.2 mph - N/A   Overcast
9:54 PM 68.0 °F - 66.9 °F 96% 29.79 in 10.0 mi SSW 13.8 mph - N/A   Overcast
10:54 PM 68.0 °F - 66.0 °F 93% 29.80 in 10.0 mi SW 5.8 mph - N/A   Overcast
11:54 PM 68.0 °F - 66.0 °F 93% 29.81 in 10.0 mi West 5.8 mph - N/A   Mostly Cloudy